This is the latest recevied weather packets stored in our database for station/object WX9WTF. If no packets are shown the sender has not sent any weather packets the latest 10 day(s).
| Time | Temp. | Humidity | Pressure | Rain* | Wind** | Luminosity | Snow |
|---|---|---|---|---|---|---|---|
| 1777515883 | 8.89° C | 83% | 1019.6 hPa | 0 mm | - | 0 W/m² | - |
| 1777515579 | 9.44° C | 81% | 1019.5 hPa | 0 mm | - | 0 W/m² | - |
| 1777515276 | 9.44° C | 79% | 1019.5 hPa | 0 mm | - | 0 W/m² | - |
| 1777514972 | 9.44° C | 77% | 1019.3 hPa | 0 mm | - | 0 W/m² | - |
| 1777514669 | 10° C | 75% | 1019.3 hPa | 0 mm | - | 0 W/m² | - |
| 1777514366 | 10.56° C | 73% | 1019.5 hPa | 0 mm | - | 0 W/m² | - |
| 1777514063 | 10.56° C | 72% | 1019.2 hPa | 0 mm | - | 0 W/m² | - |
| 1777513760 | 11.11° C | 70% | 1019.3 hPa | 0 mm | - | 0 W/m² | - |
| 1777513457 | 11.11° C | 69% | 1019.2 hPa | 0 mm | - | 0 W/m² | - |
| 1777513154 | 11.11° C | 71% | 1019 hPa | 0 mm | - | 0 W/m² | - |
| 1777512850 | 11.11° C | 69% | 1019 hPa | 0 mm | - | 0 W/m² | - |
| 1777512243 | 11.67° C | 64% | 1019.2 hPa | 0 mm | - | 0 W/m² | - |
| 1777511940 | 12.22° C | 64% | 1018.9 hPa | 0 mm | - | 1 W/m² | - |
| 1777511638 | 12.22° C | 62% | 1019.1 hPa | 0 mm | - | 2 W/m² | - |
| 1777511336 | 12.78° C | 61% | 1018.8 hPa | 0 mm | - | 3 W/m² | - |
| 1777511031 | 12.78° C | 59% | 1018.8 hPa | 0 mm | - | 6 W/m² | - |
| 1777510728 | 13.33° C | 60% | 1018.8 hPa | 0 mm | - | 8 W/m² | - |
| 1777509513 | 13.89° C | 55% | 1018.6 hPa | 0 mm | - | 18 W/m² | - |
| 1777509211 | 13.89° C | 55% | 1018.8 hPa | 0 mm | - | 22 W/m² | - |
| 1777508302 | 14.44° C | 54% | 1018.6 hPa | 0 mm | - | 30 W/m² | - |
| 1777507392 | 14.44° C | 55% | 1018.6 hPa | 0 mm | - | 45 W/m² | - |
| 1777506484 | 14.44° C | 54% | 1018.5 hPa | 0 mm | - | 67 W/m² | - |
| 1777502531 | 16.67° C | 51% | 1018.3 hPa | 0 mm | - | 148 W/m² | - |
| 1777502229 | 16.67° C | 50% | 1018.5 hPa | 0 mm | - | 335 W/m² | - |
| 1777501623 | 15.56° C | 52% | 1018.6 hPa | 0 mm | - | 237 W/m² | - |
* Rain latest hour (hover to see other rain measurements)
** Current wind speed in m/s (hover to see current wind gust speed)